TimeEST,TemperatureF,Dew PointF,Humidity,Sea Level PressureIn,VisibilityMPH,Wind Direction,Wind SpeedMPH,Gust SpeedMPH,PrecipitationIn,Events,Conditions,WindDirDegrees,DateUTC
12:53 AM,30.0,26.1,85,30.50,9.0,Calm,Calm,-,N/A,,Clear,0,2011-11-06 04:53:00
1:53 AM,32.0,26.1,79,30.50,8.0,Calm,Calm,-,N/A,,Clear,0,2011-11-06 05:53:00
1:53 AM,30.9,26.1,82,30.50,8.0,Calm,Calm,-,N/A,,Clear,0,2011-11-06 06:53:00
2:53 AM,30.0,25.0,82,30.50,9.0,Calm,Calm,-,N/A,,Clear,0,2011-11-06 07:53:00
3:53 AM,30.0,25.0,82,30.50,9.0,ENE,3.5,-,N/A,,Clear,70,2011-11-06 08:53:00
4:53 AM,28.9,26.1,89,30.51,9.0,ESE,3.5,-,N/A,,Clear,110,2011-11-06 09:53:00
5:53 AM,28.0,25.0,88,30.53,8.0,Calm,Calm,-,N/A,,Clear,0,2011-11-06 10:53:00
6:53 AM,28.9,25.0,85,30.54,6.0,Calm,Calm,-,N/A,,Clear,0,2011-11-06 11:53:00
7:53 AM,32.0,28.0,85,30.56,8.0,Calm,Calm,-,N/A,,Clear,0,2011-11-06 12:53:00
8:53 AM,37.0,32.0,82,30.56,8.0,Calm,Calm,-,N/A,,Clear,0,2011-11-06 13:53:00
9:53 AM,43.0,34.0,71,30.55,10.0,Calm,Calm,-,N/A,,Clear,0,2011-11-06 14:53:00
10:53 AM,48.9,36.0,61,30.53,10.0,South,5.8,-,N/A,,Clear,190,2011-11-06 15:53:00
11:53 AM,52.0,36.0,54,30.50,10.0,SW,6.9,-,N/A,,Clear,220,2011-11-06 16:53:00
12:53 PM,54.0,37.0,53,30.47,10.0,South,8.1,-,N/A,,Clear,180,2011-11-06 17:53:00
1:53 PM,54.0,36.0,51,30.44,10.0,Variable,6.9,-,N/A,,Clear,0,2011-11-06 18:53:00
2:53 PM,55.0,37.0,51,30.42,10.0,South,6.9,-,N/A,,Clear,170,2011-11-06 19:53:00
3:53 PM,54.0,36.0,51,30.41,10.0,SW,6.9,-,N/A,,Clear,220,2011-11-06 20:53:00
4:53 PM,50.0,37.0,61,30.41,10.0,SSE,6.9,-,N/A,,Clear,160,2011-11-06 21:53:00
5:53 PM,46.9,37.0,68,30.41,10.0,South,5.8,-,N/A,,Clear,170,2011-11-06 22:53:00
6:53 PM,46.9,37.0,68,30.41,10.0,South,5.8,-,N/A,,Clear,180,2011-11-06 23:53:00
7:53 PM,46.0,37.0,71,30.41,10.0,South,5.8,-,N/A,,Clear,190,2011-11-07 00:53:00
8:53 PM,42.1,36.0,79,30.42,10.0,Calm,Calm,-,N/A,,Clear,0,2011-11-07 01:53:00
9:53 PM,39.9,36.0,86,30.41,10.0,NE,3.5,-,N/A,,Clear,50,2011-11-07 02:53:00
10:53 PM,37.9,35.1,89,30.40,9.0,East,3.5,-,N/A,,Clear,90,2011-11-07 03:53:00